Location: Pel�-Koumbol�
(14.9505°N, 3.0798°W)
Time: 14:56:25
(UTC+00:00)

Cosmos 614 Rocket - Pass Details

Date: 17 February 2020
Orbit: 733 x 764 km, 74.1° (Epoch: 04 April)

Event Time Altitude Azimuth Distance (km) Brightness Sun altitude
Rises 05:10:41 0° 204° (SSW) 3,156 7.0 -21.1°
Reaches altitude 10° 05:13:05 10° 209° (SSW) 2,238 6.2 -20.6°
Maximum altitude 05:17:58 49° 284° (WNW) 945 4.0 -19.4°
Drops below altitude 10° 05:22:55 10° 359° (N) 2,259 6.3 -18.2°
Sets 05:25:21 0° 5° (N) 3,189 7.2 -17.6°
